Regional Weather Roundup
Issued by NWS Little Rock, AR

Home | Current Version | Previous Version | Text Only | Print | Product List | Glossary On
Versions: 1 2 3 4 5 6 7 8 9 10 11 12 13 14 15 16 17 18 19 20 21 22 23 24 25 26 27 28 29 30 31 32 33 34 35 36 37 38 39 40 41 42 43 44 45 46 47 48 49 50
000
ASUS44 KLZK 011405
RWRLZK

WEATHER ROUNDUP FOR ARKANSAS
NATIONAL WEATHER SERVICE LITTLE ROCK AR
900 AM CDT FRI AUG 01 2014

NOTE: "FAIR" INDICATES FEW OR NO CLOUDS BELOW 12,000 FEET WITH NO
SIGNIFICANT WEATHER AND/OR OBSTRUCTIONS TO VISIBILITY.

ARZ001-003-010-029-011500-
NORTHWEST ARKANSAS

CITY           SKY/WX    TMP DP  RH WIND       PRES   REMARKS
FAYETTEVILLE   CLOUDY    68  65  90 CALM      30.12R
FORT SMITH     CLOUDY    71  67  87 NE7       30.09R
HARRISON       CLOUDY    65  65 100 CALM      30.13R
BENTONVILLE    MOSUNNY   70  63  78 CALM      30.13S
ROGERS         PTSUNNY   67  64  90 N5        30.14R
SILOAM SPGS    CLOUDY    68  61  77 CALM      30.13S
HIGHFILL       CLOUDY    69  65  86 CALM      30.12S
SPRINGDALE     CLOUDY    70  64  83 N3        30.14R
$$

ARZ004-005-016-011500-
NORTH CENTRAL ARKANSAS

CITY           SKY/WX    TMP DP  RH WIND       PRES   REMARKS
BATESVILLE     CLOUDY    68  66  94 CALM      30.10S
FLIPPIN        CLOUDY    66  64  94 E3        30.11S
MTN HOME       CLOUDY    68  66  93 NE3       30.10S
$$

ARZ040-041-011500-
WEST CENTRAL ARKANSAS

CITY           SKY/WX    TMP DP  RH WIND       PRES   REMARKS
MENA           CLOUDY    70  66  88 CALM      30.09S
MOUNT IDA      CLOUDY    68  66  93 CALM      30.06S
$$

ARZ009-017-025-026-028-011500-
NORTHEAST ARKANSAS

CITY           SKY/WX    TMP DP  RH WIND       PRES   REMARKS
CORNING        FAIR      70  70 100 CALM      30.10S
JONESBORO      CLOUDY    72  67  84 CALM      30.09S
NEWPORT        CLOUDY    71  68  90 E5        30.11R
WALNUT RIDGE   MOSUNNY   70  66  88 N3        30.09S
BLYTHEVILLE    CLOUDY    77  68  73 CALM      30.09S
$$

ARZ022-023-033-042-044-011500-
CENTRAL ARKANSAS

CITY           SKY/WX    TMP DP  RH WIND       PRES   REMARKS
LITTLE ROCK    CLOUDY    71  64  78 NE6       30.08R
N LITTLE ROCK  CLOUDY    70  67  89 NE7       30.08R
JACKSONVILLE   MOSUNNY   71  65  82 NE9       30.08R
SEARCY         CLOUDY    70  65  84 N6        30.10R
HOT SPRINGS    CLOUDY    69  65  86 CALM      30.08R
RUSSELLVILLE   CLOUDY    72  66  81 CALM      30.09R
CLINTON        PTSUNNY   70  66  88 CALM      30.11R
$$

ARZ036-011500-
EAST ARKANSAS

CITY           SKY/WX    TMP DP  RH WIND       PRES   REMARKS
WEST MEMPHIS   CLOUDY    73  69  87 NE8       30.07S
$$

ARZ050-053-066-070-073-011500-
SOUTHWEST ARKANSAS

CITY           SKY/WX    TMP DP  RH WIND       PRES   REMARKS
ARKADELPHIA    PTSUNNY   70  69  96 VRB3      30.06S
CAMDEN         LGT RAIN  68  64  88 NE3       30.04R
TEXARKANA      CLOUDY    66  66 100 NE6       30.04R FOG
EL DORADO      LGT RAIN  67  66  97 NE6       30.04R FOG
DE QUEEN       CLOUDY    69  67  93 NE6       30.04S
$$

ARZ056-057-069-011500-
SOUTHEAST ARKANSAS

CITY           SKY/WX    TMP DP  RH WIND       PRES   REMARKS
PINE BLUFF     CLOUDY    71  65  81 E3        30.07R
STUTTGART      CLOUDY    72  66  83 NE9       30.07S
MONTICELLO     LGT RAIN  70  68  93 NE5       30.05S FOG

$$




USA.gov is the U.S. government's official web portal to all federal, state and local government web resources and services.